Regional Weather Roundup
Issued by NWS State College, PA

Home | Current Version | Previous Version | Text Only | Print | Product List | Glossary On
Versions: 1 2 3 4 5 6 7 8 9 10 11 12 13 14 15 16 17 18 19 20 21 22 23 24 25 26 27 28 29 30 31 32 33 34 35 36 37 38 39 40 41 42 43 44 45 46 47 48 49 50
000
ASUS41 KCTP 222310
RWRCTP

REGIONAL WEATHER ROUNDUP
NATIONAL WEATHER SERVICE STATE COLLEGE PA
700 PM EDT THU JUN 22 2017

Note: "fair" indicates few or no clouds below 12,000 feet with no
significant weather and/or obstructions to visibility.

* = STATION THAT DOES NOT REPORT PRECIPITATION /E.G. RAIN...SNOW...ETC/
    THUNDER OR FOG.

PAZ002>004-007>009-013>016-020>023-029>032-230000-
WESTERN PENNSYLVANIA

CITY           SKY/WX    TMP DP  RH WIND       PRES   REMARKS
ERIE           CLOUDY    80  69  69 S8        29.86F
MEADVILLE      CLOUDY    79  70  74 SW6       29.92S
FRANKLIN*      CLOUDY    79  66  65 SW9G16    29.94F
NEW CASTLE     FAIR      82  68  62 S9        29.93S
BEAVER COUNTY  SUNNY     79  64  61 SW8       29.95
BUTLER*        PTSUNNY   81  70  69 S7        29.96S
PITTSBURGH INT CLOUDY    81  67  62 SW10      29.96S
PITTSBURGH     CLOUDY    80  65  59 S12       29.97S
INDIANA*       CLOUDY    68  68 100 SE7       30.02F
LATROBE        PTSUNNY   73  70  88 NE8       30.00R
WASHINGTON CO* CLOUDY    79  68  69 SW8       30.00R
$$

PAZ004>006-010>012-017>019-024>028-033>037-041-042-045-046-049>053-230000-
CENTRAL PENNSYLVANIA

CITY           SKY/WX    TMP DP  RH WIND       PRES   REMARKS
BRADFORD       CLOUDY    75  69  81 CALM      29.98R
DUBOIS         CLOUDY    73  65  75 S7        29.98S
CLEARFIELD     CLOUDY    73  67  81 SW8       29.99S
JOHNSTOWN      PTSUNNY   69  65  86 N10       30.04S
ALTOONA        TSTM      73  70  90 W15G22    30.02R FOG
STATE COLLEGE  PTSUNNY   72  64  78 CALM      29.97F
WILLIAMSPORT   CLOUDY    81  69  67 W10       29.91R
SELINSGROVE    RAIN      75  73  93 CALM      29.94R FOG
FT INDIANTOWN  CLOUDY    84  70  61 SW7       29.92S
CAPITAL CITY   CLOUDY    86  68  54 SW7       29.92S
HARRISBURG     CLOUDY    86  69  56 SW8       29.91S
YORK           MOSUNNY   84  71  65 SW9       29.93F
$$

PAZ038>040-043-044-047-048-054-055-060>062-067>071-230000-
EASTERN PENNSYLVANIA

CITY           SKY/WX    TMP DP  RH WIND       PRES   REMARKS
SCRANTON       MOSUNNY   83  65  54 W10       29.93R
MOUNT POCONO   MOSUNNY   77  63  61 W9        29.98S
ALLENTOWN      CLOUDY    84  65  52 SW12      29.91S
QUAKERTOWN*    CLOUDY    84  72  65 SW6       29.94R
READING        CLOUDY    86  70  58 SW5       29.91R
LANCASTER      MOSUNNY   85  72  65 SW8       29.92S
COATESVILLE    PTCLDY    82  70  65 SW5       29.96S
POTTSTOWN      CLOUDY    82  69  64 SW6       29.94R
BLUE BELL      MOSUNNY   81  68  65 SW6       29.94R
DOYLESTOWN     CLOUDY    84  68  58 SW9       29.92R
WILLOW GROVE   NOT AVBL
NORTH PHILA    CLOUDY    87  68  52 SW10      29.93R
PHILADELPHIA   CLOUDY    87  67  51 SW13      29.92S
$$




USA.gov is the U.S. government's official web portal to all federal, state and local government web resources and services.